Find Starlink 31964

NORAD ID: 59895 Int'l Des: 2024-100 Owner: SPXS Country: US Constellation: starlink operational
LEOCIRCULAR

Current View

Loading 3D Globe...

About Starlink 31964

Starlink 31964 (NORAD 59895) is a starlink constellation satellite (v2 mini) launched May 28, 2024 by SPXS of US. It operates in LEO, CIRCULAR orbit with a mass of 730.00 kg.

Upcoming Passes

Passes for default location (London). Set your location on the main map for personalized predictions.

Altitude History

Loading altitude history...

Two-Line Element Set

1 59895U 24100L 26237.07813556 -.00000124 00000-0 50298-5 0 9995
2 59895 42.9999 254.0872 0001082 275.1002 84.9726 15.27574971126863
Epoch: Aug 25, 2026 • Age: 12 hours

Current Status

Altitude 488.2 km
Apogee / Perigee N/A
Velocity 7.62 km/s
Sub-Earth Point -23.14°S, 82.4°W
Launch Date May 28, 2024
Age 2.2 years
Type internet

Technical Details

Classification Payload
Mass 730.00 kg
Dry Mass 700.00 kg
Total Mass 730.00 kg
Length 0.30 m
Diameter 4.10 m
Span 29.00 m
Shape Box + pan
Manufacturer SPXS
Bus Type Starlink V2M
Phase Status In Orbit
Owner/State SPXS/US

Most Searched